time, Switch, Flow(0), Analog(2)
yyyy/mm/dd HH:MM:SS.fff, True=FILTERED|False=TOTAL, L/min, V
2023/06/30 20:00:07.459, True, 0.995, 0.131456
2023/06/30 20:00:07.956, True, 1.013, 0.132219
2023/06/30 20:00:08.459, True, 0.993, 0.130083
2023/06/30 20:00:08.964, True, 0.995, 0.129625
2023/06/30 20:00:09.468, True, 0.663, 0.129549
2023/06/30 20:00:09.963, True, 1.011, 0.129320
2023/06/30 20:00:10.467, True, 0.995, 0.129473
2023/06/30 20:00:10.972, True, 0.995, 0.129854
2023/06/30 20:00:11.468, True, 1.011, 0.133211
2023/06/30 20:00:11.971, True, 0.995, 0.128023
2023/06/30 20:00:12.475, True, 0.995, 0.130388
2023/06/30 20:00:12.972, True, 1.011, 0.130846
2023/06/30 20:00:13.476, True, 0.997, 0.131456
2023/06/30 20:00:13.980, True, 0.993, 0.130312
2023/06/30 20:00:14.475, True, 0.674, 0.130617
2023/06/30 20:00:14.979, True, 0.995, 0.131838
2023/06/30 20:00:15.484, True, 0.995, 0.129168
2023/06/30 20:00:15.979, True, 1.011, 0.132525
2023/06/30 20:00:16.483, True, 0.996, 0.129625
2023/06/30 20:00:16.988, True, 0.995, 0.130999
2023/06/30 20:00:17.484, True, 1.009, 0.129091
2023/06/30 20:00:17.988, True, 0.996, 0.131075
2023/06/30 20:00:18.492, True, 0.994, 0.130083
2023/06/30 20:00:18.996, True, 0.995, 0.131075
2023/06/30 20:00:19.492, True, 1.010, 0.128328
2023/06/30 20:00:19.996, True, 0.995, 0.131991
2023/06/30 20:00:20.491, True, 1.011, 0.128634
2023/06/30 20:00:20.996, True, 0.994, 0.131838
2023/06/30 20:00:21.500, True, 0.995, 0.129320
2023/06/30 20:00:21.995, True, 1.012, 0.130312
2023/06/30 20:00:22.499, True, 0.994, 0.132448
2023/06/30 20:00:23.004, True, 0.996, 0.128328
2023/06/30 20:00:23.508, True, 0.994, 0.128710
2023/06/30 20:00:24.004, True, 1.012, 0.132830
2023/06/30 20:00:24.508, True, 0.995, 0.129931
2023/06/30 20:00:25.012, True, 0.993, 0.129473
2023/06/30 20:00:25.508, True, 1.011, 0.130236
2023/06/30 20:00:26.012, True, 0.996, 0.130770
2023/06/30 20:00:26.515, True, 0.994, 0.131456
2023/06/30 20:00:27.012, True, 1.011, 0.130617
2023/06/30 20:00:27.516, True, 0.994, 0.130159
2023/06/30 20:00:28.012, True, 1.011, 0.129320
2023/06/30 20:00:28.516, True, 0.995, 0.129854
2023/06/30 20:00:29.020, True, 0.995, 0.130694
2023/06/30 20:00:29.524, True, 0.995, 0.129320
2023/06/30 20:00:30.020, True, 1.011, 0.128405
2023/06/30 20:00:30.523, True, 0.663, 0.128328
2023/06/30 20:00:31.019, True, 1.011, 0.130312
2023/06/30 20:00:31.524, True, 0.995, 0.130312
2023/06/30 20:00:32.028, True, 0.995, 0.128786
2023/06/30 20:00:32.532, True, 0.995, 0.131838
2023/06/30 20:00:33.028, True, 0.675, 0.130770
2023/06/30 20:00:33.532, True, 0.994, 0.128481
2023/06/30 20:00:34.028, True, 1.011, 0.130999
2023/06/30 20:00:34.532, True, 0.995, 0.129702
2023/06/30 20:00:35.035, True, 0.663, 0.130236
2023/06/30 20:00:35.540, True, 0.995, 0.130846
2023/06/30 20:00:36.036, True, 1.011, 0.128328
2023/06/30 20:00:36.540, True, 0.995, 0.131685
2023/06/30 20:00:37.044, True, 0.995, 0.128634
2023/06/30 20:00:37.539, True, 0.674, 0.130465
2023/06/30 20:00:38.044, True, 0.995, 0.130694
2023/06/30 20:00:38.540, True, 1.011, 0.129015
2023/06/30 20:00:39.044, True, 0.995, 0.129702
2023/06/30 20:00:39.548, True, 0.995, 0.129320
2023/06/30 20:00:40.044, True, 0.674, 0.130999
2023/06/30 20:00:40.548, True, 0.995, 0.132143
2023/06/30 20:00:41.052, True, 0.995, 0.129625
2023/06/30 20:00:41.548, True, 1.011, 0.130999
2023/06/30 20:00:42.052, True, 0.995, 0.129015
2023/06/30 20:00:42.556, True, 0.663, 0.128252
2023/06/30 20:00:43.052, True, 1.011, 0.130465
2023/06/30 20:00:43.556, True, 0.995, 0.129702
2023/06/30 20:00:44.060, True, 0.995, 0.129244
2023/06/30 20:00:44.556, True, 1.011, 0.128405
2023/06/30 20:00:45.060, True, 0.995, 0.128557
2023/06/30 20:00:45.556, True, 1.011, 0.128862
2023/06/30 20:00:46.060, True, 0.995, 0.127947
2023/06/30 20:00:46.564, True, 0.995, 0.128405
2023/06/30 20:00:47.060, True, 0.674, 0.130617
2023/06/30 20:00:47.564, True, 0.995, 0.129854
2023/06/30 20:00:48.068, True, 0.995, 0.129625
2023/06/30 20:00:48.564, True, 1.011, 0.130846
2023/06/30 20:00:49.068, True, 0.995, 0.129778
2023/06/30 20:00:49.571, True, 0.995, 0.130007
2023/06/30 20:00:50.068, True, 1.011, 0.130541
2023/06/30 20:00:50.572, True, 0.995, 0.131380
2023/06/30 20:00:51.076, True, 0.995, 0.129549
2023/06/30 20:00:51.572, True, 1.011, 0.130846
2023/06/30 20:00:52.076, True, 0.994, 0.130999
2023/06/30 20:00:52.580, True, 0.995, 0.128405
2023/06/30 20:00:53.076, True, 1.011, 0.128710
2023/06/30 20:00:53.579, True, 0.996, 0.128939
2023/06/30 20:00:54.084, True, 0.994, 0.130465
2023/06/30 20:00:54.580, True, 1.011, 0.130617
2023/06/30 20:00:55.084, True, 0.995, 0.130922
2023/06/30 20:00:55.588, True, 1.326, 0.130770
2023/06/30 20:00:56.083, True, 1.011, 0.129931
2023/06/30 20:00:56.588, True, 0.995, 0.132219
2023/06/30 20:00:57.084, True, 1.011, 0.131533
2023/06/30 20:00:57.588, True, 0.995, 0.130388
2023/06/30 20:00:58.092, True, 0.995, 0.130007
2023/06/30 20:00:58.588, True, 1.011, 0.131991
2023/06/30 20:00:59.092, True, 0.995, 0.129931
2023/06/30 20:00:59.596, True, 0.995, 0.131304
2023/06/30 20:01:00.092, True, 1.010, 0.131456
2023/06/30 20:01:00.595, True, 0.995, 0.130694
2023/06/30 20:01:01.100, True, 0.663, 0.131838
2023/06/30 20:01:01.595, True, 1.011, 0.132143
2023/06/30 20:01:02.100, True, 0.995, 0.133516
2023/06/30 20:01:02.604, True, 0.995, 0.131380
2023/06/30 20:01:03.100, True, 0.674, 0.132448
2023/06/30 20:01:03.604, True, 0.995, 0.129778
2023/06/30 20:01:04.108, True, 0.995, 0.131914
2023/06/30 20:01:04.604, True, 1.349, 0.133440
2023/06/30 20:01:05.108, True, 0.994, 0.133059
2023/06/30 20:01:05.612, True, 0.995, 0.132219
2023/06/30 20:01:06.108, True, 1.011, 0.131151
2023/06/30 20:01:06.612, True, 0.995, 0.133516
2023/06/30 20:01:07.116, True, 0.995, 0.132525
2023/06/30 20:01:07.612, True, 1.013, 0.133059
2023/06/30 20:01:08.116, True, 0.993, 0.134051
2023/06/30 20:01:08.620, True, 0.995, 0.133898
2023/06/30 20:01:09.116, True, 0.674, 0.132677
2023/06/30 20:01:09.619, True, 0.995, 0.133364
2023/06/30 20:01:10.124, True, 0.995, 0.133288
2023/06/30 20:01:10.620, True, 1.011, 0.134585
2023/06/30 20:01:11.124, True, 0.994, 0.133364
2023/06/30 20:01:11.628, True, 0.995, 0.135500
2023/06/30 20:01:12.124, True, 1.011, 0.133593
2023/06/30 20:01:12.628, True, 0.995, 0.134203
2023/06/30 20:01:13.124, True, 1.011, 0.134127
2023/06/30 20:01:13.628, True, 0.995, 0.135042
2023/06/30 20:01:14.132, True, 0.995, 0.135195
2023/06/30 20:01:14.628, True, 1.011, 0.135348
2023/06/30 20:01:15.132, True, 0.996, 0.134966
2023/06/30 20:01:15.636, True, 0.994, 0.133288
2023/06/30 20:01:16.132, True, 1.011, 0.132525
2023/06/30 20:01:16.636, True, 0.995, 0.134737
2023/06/30 20:01:17.140, True, 0.995, 0.136416
2023/06/30 20:01:17.636, True, 1.011, 0.132525
2023/06/30 20:01:18.140, True, 0.995, 0.135500
2023/06/30 20:01:18.644, True, 0.996, 0.136797
2023/06/30 20:01:19.140, True, 1.011, 0.133364
2023/06/30 20:01:19.644, True, 0.663, 0.136492
2023/06/30 20:01:20.148, True, 0.993, 0.135119
2023/06/30 20:01:20.644, True, 1.011, 0.135653
2023/06/30 20:01:21.148, True, 0.995, 0.136263
2023/06/30 20:01:21.652, True, 0.663, 0.136645
2023/06/30 20:01:22.148, True, 1.011, 0.136873
2023/06/30 20:01:22.652, True, 0.995, 0.137407
2023/06/30 20:01:23.155, True, 0.995, 0.136645
2023/06/30 20:01:23.651, True, 1.011, 0.138399
2023/06/30 20:01:24.156, True, 0.995, 0.136721
2023/06/30 20:01:24.659, True, 0.994, 0.136568
2023/06/30 20:01:25.155, True, 1.011, 0.137942
2023/06/30 20:01:25.660, True, 0.995, 0.136339
2023/06/30 20:01:26.164, True, 0.995, 0.136110
2023/06/30 20:01:26.659, True, 1.011, 0.136950
2023/06/30 20:01:27.164, True, 0.995, 0.137407
2023/06/30 20:01:27.667, True, 0.994, 0.137484
2023/06/30 20:01:28.163, True, 0.675, 0.135958
2023/06/30 20:01:28.667, True, 0.995, 0.136645
2023/06/30 20:01:29.171, True, 0.994, 0.138323
2023/06/30 20:01:29.667, True, 1.011, 0.139010
2023/06/30 20:01:30.172, True, 0.996, 0.138476
2023/06/30 20:01:30.675, True, 0.994, 0.137407
2023/06/30 20:01:31.172, True, 1.011, 0.136797
2023/06/30 20:01:31.675, True, 0.995, 0.137331
2023/06/30 20:01:32.179, True, 0.995, 0.137255
2023/06/30 20:01:32.675, True, 0.674, 0.136187
2023/06/30 20:01:33.180, True, 0.996, 0.134966
2023/06/30 20:01:33.683, True, 0.995, 0.137484
2023/06/30 20:01:34.179, True, 1.009, 0.139162
2023/06/30 20:01:34.684, True, 0.664, 0.138018
2023/06/30 20:01:35.188, True, 0.993, 0.139467
2023/06/30 20:01:35.683, True, 1.011, 0.139849
2023/06/30 20:01:36.188, True, 0.995, 0.137636
2023/06/30 20:01:36.692, True, 0.995, 0.135958
2023/06/30 20:01:37.196, True, 0.995, 0.138933
2023/06/30 20:01:37.691, True, 1.012, 0.138323
2023/06/30 20:01:38.195, True, 0.995, 0.138094
2023/06/30 20:01:38.700, True, 0.994, 0.136568
2023/06/30 20:01:39.196, True, 0.674, 0.139010
2023/06/30 20:01:39.699, True, 0.995, 0.138476
2023/06/30 20:01:40.204, True, 0.995, 0.137865
2023/06/30 20:01:40.700, True, 1.011, 0.137865
2023/06/30 20:01:41.204, True, 0.995, 0.137560
2023/06/30 20:01:41.707, True, 0.995, 0.135271
2023/06/30 20:01:42.203, True, 1.012, 0.136568
2023/06/30 20:01:42.708, True, 0.993, 0.138323
2023/06/30 20:01:43.211, True, 0.995, 0.138705
2023/06/30 20:01:43.707, True, 0.674, 0.138247
2023/06/30 20:01:44.212, True, 0.995, 0.137636
2023/06/30 20:01:44.715, True, 0.995, 0.137026
2023/06/30 20:01:45.211, True, 1.010, 0.136492
2023/06/30 20:01:45.715, True, 0.663, 0.138018
2023/06/30 20:01:46.211, True, 1.011, 0.136873
2023/06/30 20:01:46.715, True, 0.995, 0.138705
2023/06/30 20:01:47.219, True, 0.995, 0.138552
2023/06/30 20:01:47.723, True, 0.997, 0.137942
2023/06/30 20:01:48.220, True, 1.010, 0.137331
2023/06/30 20:01:48.723, True, 0.994, 0.139849
2023/06/30 20:01:49.219, True, 1.011, 0.138781
2023/06/30 20:01:49.723, True, 0.996, 0.138933
2023/06/30 20:01:50.228, True, 0.994, 0.138705
2023/06/30 20:01:50.732, True, 0.664, 0.137789
2023/06/30 20:01:51.227, True, 1.011, 0.137560
2023/06/30 20:01:51.731, True, 0.995, 0.137255
2023/06/30 20:01:52.236, True, 0.994, 0.139010
2023/06/30 20:01:52.731, True, 1.012, 0.137560
2023/06/30 20:01:53.235, True, 0.995, 0.137789
2023/06/30 20:01:53.739, True, 0.994, 0.137255
2023/06/30 20:01:54.236, True, 0.675, 0.138781
2023/06/30 20:01:54.739, True, 0.995, 0.138170
2023/06/30 20:01:55.236, True, 1.011, 0.137407
2023/06/30 20:01:55.739, True, 0.993, 0.136873
2023/06/30 20:01:56.244, True, 0.995, 0.139315
2023/06/30 20:01:56.740, True, 0.675, 0.139239
2023/06/30 20:01:57.244, True, 0.994, 0.138476
2023/06/30 20:01:57.748, True, 0.994, 0.138628
2023/06/30 20:01:58.244, True, 1.011, 0.137102
2023/06/30 20:01:58.748, True, 0.996, 0.137484
2023/06/30 20:01:59.252, True, 0.994, 0.137865
2023/06/30 20:01:59.748, True, 0.675, 0.137102
2023/06/30 20:02:00.251, True, 0.993, 0.137026
2023/06/30 20:02:00.756, True, 0.995, 0.138170
2023/06/30 20:02:01.252, True, 1.011, 0.140536
2023/06/30 20:02:01.755, True, 0.994, 0.139544
2023/06/30 20:02:02.260, True, 0.994, 0.138323
2023/06/30 20:02:02.756, True, 1.011, 0.138705
2023/06/30 20:02:03.260, True, 0.995, 0.138705
2023/06/30 20:02:03.764, True, 0.995, 0.138018
2023/06/30 20:02:04.260, True, 0.674, 0.139620
2023/06/30 20:02:04.764, True, 0.995, 0.139620
2023/06/30 20:02:05.268, True, 0.994, 0.138323
2023/06/30 20:02:05.764, True, 1.011, 0.134661
2023/06/30 20:02:06.268, True, 0.995, 0.137255
2023/06/30 20:02:06.772, True, 0.995, 0.137484
2023/06/30 20:02:07.268, True, 1.011, 0.136110
2023/06/30 20:02:07.772, True, 0.994, 0.137026
2023/06/30 20:02:08.276, True, 0.995, 0.137713
2023/06/30 20:02:08.772, True, 1.012, 0.137636
2023/06/30 20:02:09.276, True, 0.993, 0.140307
2023/06/30 20:02:09.772, True, 1.011, 0.141833
2023/06/30 20:02:10.276, True, 0.995, 0.139620
2023/06/30 20:02:10.780, True, 0.995, 0.137102
2023/06/30 20:02:11.276, True, 1.011, 0.138628
2023/06/30 20:02:11.780, True, 0.995, 0.140459
2023/06/30 20:02:12.284, True, 0.995, 0.138247
2023/06/30 20:02:12.779, True, 0.675, 0.139467
2023/06/30 20:02:13.284, True, 0.994, 0.139162
2023/06/30 20:02:13.780, True, 1.010, 0.139544
2023/06/30 20:02:14.284, True, 0.995, 0.137331
2023/06/30 20:02:14.788, True, 0.995, 0.137179
2023/06/30 20:02:15.284, True, 1.011, 0.138781
2023/06/30 20:02:15.788, True, 0.664, 0.140002
2023/06/30 20:02:16.292, True, 1.325, 0.137713
2023/06/30 20:02:16.788, True, 1.010, 0.138323
2023/06/30 20:02:17.292, True, 0.995, 0.138399
2023/06/30 20:02:17.795, True, 0.996, 0.137560
2023/06/30 20:02:18.292, True, 1.010, 0.142138
2023/06/30 20:02:18.796, True, 0.996, 0.136263
2023/06/30 20:02:19.300, True, 0.994, 0.139086
2023/06/30 20:02:19.796, True, 1.013, 0.139162
2023/06/30 20:02:20.300, True, 0.662, 0.138857
2023/06/30 20:02:20.796, True, 1.011, 0.137255
2023/06/30 20:02:21.300, True, 0.995, 0.141070
2023/06/30 20:02:21.804, True, 0.995, 0.139010
2023/06/30 20:02:22.300, True, 1.011, 0.140078
2023/06/30 20:02:22.804, True, 0.663, 0.137942
2023/06/30 20:02:23.308, True, 0.995, 0.139391
2023/06/30 20:02:23.804, True, 1.011, 0.137255
2023/06/30 20:02:24.308, True, 0.995, 0.139391
2023/06/30 20:02:24.803, True, 0.674, 0.138552
2023/06/30 20:02:25.308, True, 0.995, 0.138781
2023/06/30 20:02:25.812, True, 0.995, 0.138094
2023/06/30 20:02:26.308, True, 1.011, 0.140688
2023/06/30 20:02:26.811, True, 0.995, 0.138933
2023/06/30 20:02:27.316, True, 0.995, 0.137636
2023/06/30 20:02:27.812, True, 1.011, 0.137255
2023/06/30 20:02:28.316, True, 0.995, 0.137102
2023/06/30 20:02:28.812, True, 1.010, 0.139315
2023/06/30 20:02:29.316, True, 0.995, 0.138476
2023/06/30 20:02:29.820, True, 0.995, 0.140078
2023/06/30 20:02:30.316, True, 0.674, 0.139315
2023/06/30 20:02:30.819, True, 0.995, 0.139773
2023/06/30 20:02:31.324, True, 0.995, 0.141604
2023/06/30 20:02:31.820, True, 1.011, 0.138628
2023/06/30 20:02:32.324, True, 1.326, 0.136950
2023/06/30 20:02:32.828, True, 0.995, 0.138247
2023/06/30 20:02:33.324, True, 1.011, 0.139086
2023/06/30 20:02:33.828, True, 0.663, 0.141146
2023/06/30 20:02:34.324, True, 1.011, 0.137942
2023/06/30 20:02:34.828, True, 0.995, 0.137331
2023/06/30 20:02:35.332, True, 0.995, 0.137484
2023/06/30 20:02:35.828, True, 1.011, 0.138781
2023/06/30 20:02:36.332, True, 0.663, 0.136492
2023/06/30 20:02:36.836, True, 0.995, 0.139544
2023/06/30 20:02:37.332, True, 1.011, 0.137407
2023/06/30 20:02:37.836, True, 0.995, 0.138399
2023/06/30 20:02:38.340, True, 0.995, 0.136645
2023/06/30 20:02:38.836, True, 1.011, 0.138476
2023/06/30 20:02:39.340, True, 0.663, 0.136797
2023/06/30 20:02:39.844, True, 0.996, 0.138476
2023/06/30 20:02:40.340, True, 1.346, 0.138781
2023/06/30 20:02:40.844, True, 0.663, 0.138170
2023/06/30 20:02:41.340, True, 1.011, 0.139239
2023/06/30 20:02:41.844, True, 0.995, 0.137865
2023/06/30 20:02:42.348, True, 0.995, 0.136339
2023/06/30 20:02:42.844, True, 1.011, 0.137026
2023/06/30 20:02:43.348, True, 0.995, 0.139925
2023/06/30 20:02:43.851, True, 0.995, 0.137331
2023/06/30 20:02:44.348, True, 1.011, 0.137179
2023/06/30 20:02:44.852, True, 0.995, 0.137789
2023/06/30 20:02:45.356, True, 0.664, 0.138476
2023/06/30 20:02:45.852, True, 1.010, 0.138170
2023/06/30 20:02:46.356, True, 0.995, 0.138094
2023/06/30 20:02:46.860, True, 0.995, 0.137942
2023/06/30 20:02:47.356, True, 0.674, 0.137713
2023/06/30 20:02:47.860, True, 0.995, 0.138094
2023/06/30 20:02:48.364, True, 0.995, 0.137942
2023/06/30 20:02:48.860, True, 1.011, 0.138628
2023/06/30 20:02:49.364, True, 0.995, 0.138247
2023/06/30 20:02:49.868, True, 0.995, 0.137789
2023/06/30 20:02:50.364, True, 1.011, 0.136339
2023/06/30 20:02:50.868, True, 0.995, 0.135958
2023/06/30 20:02:51.372, True, 0.995, 0.138399
2023/06/30 20:02:51.868, True, 1.013, 0.136873
2023/06/30 20:02:52.372, True, 0.662, 0.137179
2023/06/30 20:02:52.876, True, 0.995, 0.137331
2023/06/30 20:02:53.372, True, 1.011, 0.137942
2023/06/30 20:02:53.876, True, 0.995, 0.137255
2023/06/30 20:02:54.380, True, 0.995, 0.137407
2023/06/30 20:02:54.876, True, 1.011, 0.136263
2023/06/30 20:02:55.380, True, 0.995, 0.138247
2023/06/30 20:02:55.884, True, 0.994, 0.138247
2023/06/30 20:02:56.380, True, 1.011, 0.137713
2023/06/30 20:02:56.884, True, 0.995, 0.137713
2023/06/30 20:02:57.380, True, 1.011, 0.138399
2023/06/30 20:02:57.884, True, 0.995, 0.138170
2023/06/30 20:02:58.388, True, 0.995, 0.138857
2023/06/30 20:02:58.884, True, 1.011, 0.138552
2023/06/30 20:02:59.388, True, 0.995, 0.137636
2023/06/30 20:02:59.892, True, 0.994, 0.137026
2023/06/30 20:03:00.388, True, 1.011, 0.138857
2023/06/30 20:03:00.892, True, 0.995, 0.136645
2023/06/30 20:03:01.396, True, 0.663, 0.137026
2023/06/30 20:03:01.892, True, 1.011, 0.136416
2023/06/30 20:03:02.395, True, 0.995, 0.137331
2023/06/30 20:03:02.900, True, 0.995, 0.138323
2023/06/30 20:03:03.404, True, 0.663, 0.137713
2023/06/30 20:03:03.900, True, 1.011, 0.137942
2023/06/30 20:03:04.404, True, 0.995, 0.137789
2023/06/30 20:03:04.908, True, 0.995, 0.137255
2023/06/30 20:03:05.404, True, 1.011, 0.139162
2023/06/30 20:03:05.908, True, 0.995, 0.138018
2023/06/30 20:03:06.412, True, 0.995, 0.137636
2023/06/30 20:03:06.908, True, 1.011, 0.136416
2023/06/30 20:03:07.412, True, 0.996, 0.138399
2023/06/30 20:03:07.908, True, 1.010, 0.136339
2023/06/30 20:03:08.412, True, 0.995, 0.138628
2023/06/30 20:03:08.916, True, 0.995, 0.136339
2023/06/30 20:03:09.412, True, 1.011, 0.137789
2023/06/30 20:03:09.916, True, 0.995, 0.135119
2023/06/30 20:03:10.420, True, 0.995, 0.135805
2023/06/30 20:03:10.916, True, 0.674, 0.136034
2023/06/30 20:03:11.419, True, 0.996, 0.139162
2023/06/30 20:03:11.924, True, 0.993, 0.137942
2023/06/30 20:03:12.420, True, 1.011, 0.136645
2023/06/30 20:03:12.924, True, 0.997, 0.137789
2023/06/30 20:03:13.428, True, 0.993, 0.138247
2023/06/30 20:03:13.924, True, 1.011, 0.138323
2023/06/30 20:03:14.428, True, 0.995, 0.136339
2023/06/30 20:03:14.932, True, 0.995, 0.138476
2023/06/30 20:03:15.428, True, 0.674, 0.138094
2023/06/30 20:03:15.932, True, 0.997, 0.136416
2023/06/30 20:03:16.436, True, 0.993, 0.139162
2023/06/30 20:03:16.932, True, 1.011, 0.135805
2023/06/30 20:03:17.436, True, 0.995, 0.138247
2023/06/30 20:03:17.940, True, 0.995, 0.137255
2023/06/30 20:03:18.436, True, 1.011, 0.138399
2023/06/30 20:03:18.940, True, 0.995, 0.136187
2023/06/30 20:03:19.443, True, 0.995, 0.137484
2023/06/30 20:03:19.940, True, 1.011, 0.138247
2023/06/30 20:03:20.443, True, 0.997, 0.136645
2023/06/30 20:03:20.948, True, 0.993, 0.138552
2023/06/30 20:03:21.444, True, 1.011, 0.137560
2023/06/30 20:03:21.948, True, 0.995, 0.136797
2023/06/30 20:03:22.452, True, 0.995, 0.135958
2023/06/30 20:03:22.956, True, 0.664, 0.136721
2023/06/30 20:03:23.452, True, 1.010, 0.138781
2023/06/30 20:03:23.955, True, 0.995, 0.136797
2023/06/30 20:03:24.459, True, 0.996, 0.137789
2023/06/30 20:03:24.956, True, 1.011, 0.137865
2023/06/30 20:03:25.459, True, 0.994, 0.138247
2023/06/30 20:03:25.963, True, 0.995, 0.135271
2023/06/30 20:03:26.459, True, 1.011, 0.138476
2023/06/30 20:03:26.964, True, 0.995, 0.136721
2023/06/30 20:03:27.468, True, 0.995, 0.134585
2023/06/30 20:03:27.963, True, 1.010, 0.135271
2023/06/30 20:03:28.467, True, 0.995, 0.136034
2023/06/30 20:03:28.971, True, 0.996, 0.135958
2023/06/30 20:03:29.467, True, 1.011, 0.137484
2023/06/30 20:03:29.971, True, 0.994, 0.135729
2023/06/30 20:03:30.476, True, 0.996, 0.135576
2023/06/30 20:03:30.972, True, 1.011, 0.136873
2023/06/30 20:03:31.476, True, 0.994, 0.136950
2023/06/30 20:03:31.980, True, 0.996, 0.136110
2023/06/30 20:03:32.475, True, 1.009, 0.137102
2023/06/30 20:03:32.979, True, 0.996, 0.135271
2023/06/30 20:03:33.484, True, 0.993, 0.135729
2023/06/30 20:03:33.979, True, 1.012, 0.136645
2023/06/30 20:03:34.484, True, 0.995, 0.137484
2023/06/30 20:03:34.988, True, 0.994, 0.134966
2023/06/30 20:03:35.484, True, 0.673, 0.137026
2023/06/30 20:03:35.988, True, 0.995, 0.137560
2023/06/30 20:03:36.484, True, 1.013, 0.137102
2023/06/30 20:03:36.988, True, 0.993, 0.136492
2023/06/30 20:03:37.492, True, 0.995, 0.138552
2023/06/30 20:03:37.996, True, 0.995, 0.138552
2023/06/30 20:03:38.492, True, 1.011, 0.136110
2023/06/30 20:03:38.996, True, 0.996, 0.137255
2023/06/30 20:03:39.499, True, 0.993, 0.135729
2023/06/30 20:03:39.996, True, 1.011, 0.136263
2023/06/30 20:03:40.500, True, 0.995, 0.138018
2023/06/30 20:03:41.003, True, 0.663, 0.137484
2023/06/30 20:03:41.499, True, 1.011, 0.134813
2023/06/30 20:03:42.004, True, 0.995, 0.138018
2023/06/30 20:03:42.500, True, 1.011, 0.136950
2023/06/30 20:03:43.003, True, 0.995, 0.137255
2023/06/30 20:03:43.508, True, 0.995, 0.136339
2023/06/30 20:03:44.003, True, 1.011, 0.136492
2023/06/30 20:03:44.507, True, 0.995, 0.135729
2023/06/30 20:03:45.003, True, 1.011, 0.136187
2023/06/30 20:03:45.508, True, 0.995, 0.137407
2023/06/30 20:03:46.012, True, 0.996, 0.135805
2023/06/30 20:03:46.508, True, 1.010, 0.135805
2023/06/30 20:03:47.012, True, 0.995, 0.134203
2023/06/30 20:03:47.515, True, 0.995, 0.138094
2023/06/30 20:03:48.012, True, 1.011, 0.134585
2023/06/30 20:03:48.516, True, 0.663, 0.134737
2023/06/30 20:03:49.020, True, 0.995, 0.137865
2023/06/30 20:03:49.516, True, 1.011, 0.138247
2023/06/30 20:03:50.020, True, 0.995, 0.136873
2023/06/30 20:03:50.523, True, 0.995, 0.134279
2023/06/30 20:03:51.019, True, 1.010, 0.136263
2023/06/30 20:03:51.524, True, 1.328, 0.137102
2023/06/30 20:03:52.027, True, 0.994, 0.137331
2023/06/30 20:03:52.532, True, 0.663, 0.137560
2023/06/30 20:03:53.028, True, 1.012, 0.138170
2023/06/30 20:03:53.532, True, 0.994, 0.134737
2023/06/30 20:03:54.036, True, 0.995, 0.138247
2023/06/30 20:03:54.532, True, 1.011, 0.135348
2023/06/30 20:03:55.036, True, 0.995, 0.138323
2023/06/30 20:03:55.540, True, 0.995, 0.134203
2023/06/30 20:03:56.036, True, 1.011, 0.136797
2023/06/30 20:03:56.540, True, 0.995, 0.136187
2023/06/30 20:03:57.044, True, 0.995, 0.135042
2023/06/30 20:03:57.540, True, 1.011, 0.140002
2023/06/30 20:03:58.044, True, 0.995, 0.138247
2023/06/30 20:03:58.548, True, 0.995, 0.135653
2023/06/30 20:03:59.044, True, 1.011, 0.138094
2023/06/30 20:03:59.548, True, 0.995, 0.140078
2023/06/30 20:04:00.052, True, 0.995, 0.138170
2023/06/30 20:04:00.548, True, 1.011, 0.135805
2023/06/30 20:04:01.052, True, 0.995, 0.136263
2023/06/30 20:04:01.556, True, 0.994, 0.136873
2023/06/30 20:04:02.052, True, 1.011, 0.137484
2023/06/30 20:04:02.555, True, 0.995, 0.136645
2023/06/30 20:04:03.060, True, 0.995, 0.136263
2023/06/30 20:04:03.556, True, 0.674, 0.136950
2023/06/30 20:04:04.060, True, 0.995, 0.137407
2023/06/30 20:04:04.564, True, 0.995, 0.135042
2023/06/30 20:04:05.060, True, 1.011, 0.134966
2023/06/30 20:04:05.564, True, 0.995, 0.137102
2023/06/30 20:04:06.068, True, 0.995, 0.135958
2023/06/30 20:04:06.564, True, 1.012, 0.135958
2023/06/30 20:04:07.068, True, 0.993, 0.135576
2023/06/30 20:04:07.572, True, 0.995, 0.137179
2023/06/30 20:04:08.068, True, 0.674, 0.137407
2023/06/30 20:04:08.572, True, 0.995, 0.136568
2023/06/30 20:04:09.076, True, 0.995, 0.135729
2023/06/30 20:04:09.571, True, 1.011, 0.135576
2023/06/30 20:04:10.076, True, 0.994, 0.138018
2023/06/30 20:04:10.579, True, 0.995, 0.136339
2023/06/30 20:04:11.076, True, 1.011, 0.136034
2023/06/30 20:04:11.580, True, 1.327, 0.137102
2023/06/30 20:04:12.084, True, 0.995, 0.138170
2023/06/30 20:04:12.580, True, 1.011, 0.135500
2023/06/30 20:04:13.084, True, 0.663, 0.135424
2023/06/30 20:04:13.580, True, 1.011, 0.135271
2023/06/30 20:04:14.084, True, 0.995, 0.137179
2023/06/30 20:04:14.588, True, 0.995, 0.136797
2023/06/30 20:04:15.092, True, 0.995, 0.133211
2023/06/30 20:04:15.588, True, 1.011, 0.137026
2023/06/30 20:04:16.092, True, 0.995, 0.135271
2023/06/30 20:04:16.587, True, 1.011, 0.133974